{"data":{"norad_id":67342,"epoch":"2026-05-25T00:48:02.238336Z","epoch_age_seconds":86240,"freshness":"FRESH","line1":"1 67342U 26003J   26145.03335924  .00022290  00000+0  81689-3 0  9999","line2":"2 67342  43.0001 155.5725 0001441 274.7230  85.3457 15.27587407 20502","mean_motion":15.27587407,"eccentricity":0.0001441,"inclination_deg":43.0001,"raan_deg":155.5725,"arg_perigee_deg":274.723,"mean_anomaly_deg":85.3457,"bstar":0.00081689,"rev_number":2050,"period_min":94.266291630931,"perigee_km":482.03822318619,"apogee_km":484.01561062705,"semimajor_km":6861.1639169066,"source":"CELESTRAK","updated_at":"2026-05-25T13:38:21.523643Z"}}